Regional Weather Roundup
Issued by NWS Cleveland, OH

Home | Current Version | Previous Version | Graphics & Text | Print | Product List | Glossary On
Versions: 1 2 3 4 5 6 7 8 9 10 11 12 13 14 15 16 17 18 19 20 21 22 23 24 25 26 27 28 29 30 31 32 33 34 35 36 37 38 39 40 41 42 43 44 45 46 47 48 49 50
000
ASUS41 KCLE 280802
RWRCLE
OHIO REGIONAL WEATHER ROUNDUP
NATIONAL WEATHER SERVICE CLEVELAND, OH
300 AM EST SAT FEB 28 2015

NOTE: "FAIR" INDICATES FEW OR NO CLOUDS BELOW 12,000 FEET WITH NO
SIGNIFICANT WEATHER AND/OR OBSTRUCTIONS TO VISIBILITY.

OHZ001>008-015>018-024>027-034-035-043-044-280900-
   NORTHWEST OHIO

CITY           SKY/WX    TMP DP  RH WIND       PRES   REMARKS
DEFIANCE       PTCLDY    -4  -8  83 CALM      30.70R
FINDLAY        PTCLDY     1  -7  68 CALM      30.68R
TOLEDO EXPRESS PTCLDY    -5 -10  79 CALM      30.69R
TOLEDO EXEC    PTCLDY    -1  -9  68 SW3       30.71R
LIMA           CLEAR      0  -8  69 S5        30.67R WCI -10
$$

OHZ009>014-019>023-028>033-038-089-280900-
   NORTHEAST OHIO

CITY           SKY/WX    TMP DP  RH WIND       PRES   REMARKS
CLE-HOPKINS    PTCLDY    -6 -11  79 S3        30.72R
CLE-LAKEFRONT  CLEAR      6  -3  66 SE6       30.70S WCI  -4
CUY CO. ARPT   NOT AVBL
LORAIN-ELYRIA  PTCLDY    -8 -12  83 S5        30.69S WCI -19
ASHTABULA      PTCLDY   -10 -15  78 CALM      30.68S
AKRON-CANTON   PTCLDY     0  -6  76 CALM      30.65R
WOOSTER        MOCLDY   -12 -15  86 CALM      30.67R
MANSFIELD      MOCLDY    -2  -6  83 S3        30.65R
YOUNGSTOWN     PTCLDY     1  -5  75 E3        30.65S
$$

OHZ042-051>053-060>062-070>072-077>081-280900-
  SOUTHWEST OHIO

CITY           SKY/WX    TMP DP  RH WIND       PRES   REMARKS
CINC-COVINGTON PTCLDY    12   1  61 E7        30.65  WCI   1
CINC-LUNKEN    CLEAR      7   2  80 N3        30.71F
HAMILTON       PTCLDY     3  -2  79 CALM      30.70S
DAYTON         MOCLDY     7  -1  70 E5        30.67S WCI  -2
WRIGHT-PAT AFB MOCLDY     5   0  77 N2        30.68S
DAYTON GENERAL PTCLDY    10  -2  58 E5        30.66S WCI   2
WILMINGTON     PTCLDY     4  -5  66 E5        30.65F WCI  -5
$$

OHZ036-037-039>041-045>050-054>059-063>069-073>076-082>088-280900-
  CENTRAL AND SOUTHEAST OHIO

CITY           SKY/WX    TMP DP  RH WIND       PRES   REMARKS
COLUMBUS       MOCLDY     3  -4  72 CALM      30.70R
OSU AIRPORT    MOCLDY     3  -3  76 CALM      30.69S
BOLTON FIELD   PTCLDY   N/A N/A N/A CALM      30.69S
RICKENBACK AFB NOT AVBL
NEWARK         CLEAR     -2  -7  79 CALM      30.69R
MARION         PTCLDY    -7 -12  79 S3        30.68R
LANCASTER      PTCLDY     1  -4  79 CALM      30.70R
ZANESVILLE     CLEAR      3  -2  79 CALM      30.69R
NEW PHILLY     PTCLDY     0  -6  76 CALM      30.71R
$$



USA.gov is the U.S. government's official web portal to all federal, state and local government web resources and services.